This is the latest recevied weather packets stored in our database for station/object N6RDS. If no packets are shown the sender has not sent any weather packets the latest 10 day(s).
| Time | Temp. | Humidity | Pressure | Rain* | Wind** | Luminosity | Snow |
|---|---|---|---|---|---|---|---|
| 1777997726 | 7.78° C | 59% | 1019.6 hPa | 0 mm | - | 119 W/m² | - |
| 1777997423 | 7.78° C | 58% | 1019.7 hPa | 0 mm | - | 121 W/m² | - |
| 1777997122 | 8.33° C | 57% | 1019.6 hPa | 0 mm | - | 105 W/m² | - |
| 1777996819 | 8.33° C | 58% | 1019.6 hPa | 0 mm | - | 137 W/m² | - |
| 1777996515 | 8.89° C | 57% | 1019.4 hPa | 0 mm | - | 225 W/m² | - |
| 1777996211 | 8.33° C | 57% | 1019.4 hPa | 0 mm | - | 136 W/m² | - |
| 1777995908 | 8.33° C | 58% | 1019.4 hPa | 0 mm | - | 160 W/m² | - |
| 1777995604 | 7.78° C | 59% | 1019.5 hPa | 0 mm | - | 104 W/m² | - |
| 1777995302 | 8.33° C | 57% | 1019.5 hPa | 0 mm | - | 140 W/m² | - |
| 1777994997 | 9.44° C | 55% | 1019.1 hPa | 0 mm | - | 108 W/m² | - |
| 1777994694 | 7.78° C | 56% | 1019.2 hPa | 0 mm | - | 434 W/m² | - |
| 1777994389 | 8.89° C | 56% | 1019.5 hPa | 0 mm | - | 89 W/m² | - |
| 1777994085 | 7.78° C | 57% | 1019.5 hPa | 0 mm | - | 392 W/m² | - |
| 1777993783 | 7.22° C | 60% | 1019.6 hPa | 0 mm | - | 65 W/m² | - |
| 1777993479 | 7.78° C | 61% | 1019.5 hPa | 0 mm | - | 67 W/m² | - |
| 1777993179 | 7.78° C | 62% | 1019.5 hPa | 0 mm | - | 82 W/m² | - |
| 1777992877 | 7.22° C | 63% | 1019.5 hPa | 0 mm | - | 75 W/m² | - |
| 1777992575 | 7.22° C | 63% | 1019.4 hPa | 0 mm | - | 111 W/m² | - |
| 1777992273 | 6.67° C | 64% | 1019.5 hPa | 0 mm | - | 132 W/m² | - |
| 1777991970 | 7.78° C | 63% | 1019.5 hPa | 0 mm | - | 105 W/m² | - |
| 1777991667 | 8.33° C | 59% | 1019.5 hPa | 0 mm | - | 183 W/m² | - |
| 1777991364 | 7.78° C | 63% | 1019.5 hPa | 0 mm | - | 215 W/m² | - |
| 1777991062 | 6.11° C | 68% | 1019.7 hPa | 0 mm | - | 200 W/m² | - |
| 1777990759 | 6.11° C | 69% | 1019.6 hPa | 0 mm | - | 62 W/m² | - |
| 1777990456 | 6.67° C | 69% | 1019.5 hPa | 0 mm | - | 63 W/m² | - |
* Rain latest hour (hover to see other rain measurements)
** Current wind speed in m/s (hover to see current wind gust speed)